Weather in Tugulim

Russia / Sverdlovsk Oblast     57°03′32″N   64°38′28″E
temp.,
°C
wind,
m/s
gust,
m/s
humid.,
%
clouds,
%
prec.,
mm/h
press.,
hPa
HPBL,
m
12 april, mon
mon1223:00+5sw4128975 0.0 1032316
02:00+4sw399495 0.0 1032197
05:00+5wsw2896100 0.0 1032172
08:00+6w2698100 0.7 1032189
11:00+10nw467599 0.7 1034740
14:00+12nnw4656100 0.0 1034983
17:00+11nw4662100 0.0 10351115
20:00+7nnw3573100 0.0 1037103
13 april, tue
tue1323:00+4nnw35700 0.0 103978
02:00+3nnw22750 0.0 104022
05:00+1nw22770 0.0 104111
08:00+5wnw23700 0.0 1041172
11:00+9wsw34490 0.0 1041766
14:00+12wsw34375 0.0 10391142
17:00+13wsw45395 0.0 10381023
20:00+7sw36675 0.0 103797
14 april, wed
wed1423:00+6sw387860 0.0 1036146
02:00+5sw31177100 0.0 1034233
05:00+6sw41277100 0.0 1033274
08:00+8sw4117894 0.0 1032278
11:00+15wsw586329 0.0 1030697
14:00+18w575079 0.0 10291165
17:00+18w4653100 0.0 10271133
20:00+13wsw227863 0.0 102722
15 april, thu
thu1523:00+11wsw358890 0.0 102676
02:00+9wsw249136 0.0 102559
05:00+8wsw24925 0.0 102563
08:00+11wsw377612 0.0 1024233
11:00+17w474856 0.0 1023981
14:00+19w57345 0.0 10211387
17:00+19w463816 0.0 10191471
20:00+13sw226530 0.0 101823
16 april, fri
fri1623:00+11sw37817 0.0 1017116
02:00+10sw249042 0.0 101678
05:00+9wsw229229 0.0 101531
08:00+12wsw247552 0.0 1013191
11:00+17wsw345445 0.0 1012945
14:00+18w453343 0.0 10101880
17:00+18wnw343546 0.0 10092075
20:00+11ne51078100 0.0 1010489